Showing default

DRAGRACER 2(AUGURY), 46955

Orbit data source: Space-Track

DRAGRACER 2(AUGURY), 46955 is a payload satellite owned by TriSept (US) in SSO that was launched on Fri, 20 Nov 2020 UTC via an ELECTRON launch vehicle from the Rocket Lab Launch Complex (RLLC). Payload-class satellites include a variety of spacecraft equipped with specific instruments for various scientific and technological missions. These include communications satellites like Starlink; space stations such as the ISS; scientific satellites like the Hubble; Earth observation satellites from companies like Planet Labs, Umbra, and HawkEye 360; GPS; miniature CubeSats for education and research; and military/defense satellites.

Loading next visibility...
Identifier
46955, 2020-085AC
Orbit
SSO
Last TLE update
19 hours ago
Origin
Manufacturer
Millenium ES
Mission
Operational Commercial Technology
Bus & Motor
CUBESAT 6U, Unknown motor
Mass
12 kg wet, 12 kg dry
Launch date (UTC)
2020-11-20 (5 years ago)
Launch vehicle
ELECTRON
Launch site
Rocket Lab Launch Complex (RLLC)
Object type
Payload
Rocket body
Debris
Shape & HBR
Box, Unknown HBR
Radar Cross Section
0.080 m², Medium (>0.1 m² and < 1m²)

Expand to show TLE details & history

TLE from 19 hours ago
0 DRAGRACER 2(AUGURY)
1 46955U 20085AC  25182.44318734  .00013153  00000-0  23226-3 0  9997
2 46955  97.5806 350.1571 0008805 115.8671 244.3489 15.50461304257207
Epoch: 2025-07-01T10:38Z
TLE epoch observation values (Epoch: 2025-07-01T10:38:11.386Z)
Latitude
Longitude
-89.12891°
Altitude
421.099 km
Speed
7.657 km/s
True Right ascension
23h 20m 37s
True Declination
0° 00' 00"
Sunlit
Object was in daylight at epoch
Visualization orbit readout
Latitude
18.5869°
Longitude
94.26709°
Altitude
413.919 km
Speed
7.666 km/s
Apparent Right ascension
09h 06m 03s
Apparent Declination
-13° 16' 36"
Sunlit
Object is in daylight
Visualization observer readout
Local Sidereal Time
17:36:36
Azimuth
284.913° WNW
Elevation
-37.102°
Doppler factor
1
Orbital elements
Apogee altitude
418.29 km
Perigee altitude
406.332 km
Semi-major axis
6,790.448 km
Eccentricity
0.00088
Inclination
97.5806°
RAAN
350.1571°
Arg. of periapsis
115.8671°
True anomaly
Unknown
Mean anomaly
244.3489°
Eccentric anomaly
Unknown
Mean motion
3.87878 °/min
Orbital period
92.81 mins
BSTAR
0.00023226
Loading maneuver chart data...
Loading SW <> Apogee altitude chart data...

DRAGRACER 2(AUGURY) Visibility forecast

Observer location: undefined°, undefined°

Span
Click to sort rows by Start time (UTC) header in descending order
Start Az.
Max El. time (UTC)
Max El. Az.
Max El.
End time (UTC)
End Az.
5 mins2025-07-02 11:32:58.012Z190.242° SSW2025-07-02 11:34:58.012Z236.388° WSW33.47°2025-07-02 11:37:58.012Z331.876° NNW
4 mins2025-07-03 00:22:58.012Z346.791° N2025-07-03 00:23:58.012Z315.305° NNW34.483°2025-07-03 00:26:58.012Z212.604° SW
|